sat.trackr.live / text

‹ back to catalog

ONEWEB-0252

NORAD 48970 · 2021-060D

PAYLOAD ACTIVE UNKNOWN

§ Identity

Operator
Country
UK
Launch date
2021-07-01
Launch site
VOSTO
Launch vehicle
Mass (kg)
RCS (m²)

Purposes: comms

External: N2YO · Heavens-Above · Gunter

§ Orbital elements

Epoch: 2026-05-25T05:00:29.367936Z

Period
109.37 min
Inclination
87.9106°
Eccentricity
0.0002124
Mean motion
13.16595839 rev/d
Perigee alt
1,196.1 km
Apogee alt
1,199.4 km
Semi-major
7,575.9 km
B*
7.3854e-6
RAAN
233.3322°
Arg perigee
94.3240°
Mean anomaly
265.8134°
Rev number
23,663

§ Raw data

ONEWEB-02521 48970U 21060D   26145.20867324  .00000016  00000+0  73854-5 0  99952 48970  87.9106 233.3322 0002124  94.3240 265.8134 13.16595839236639

JSON: /api/v1/satellites/48970 · /tle

For live sub-satellite position, see the globe view (requires WebGL).

§ Visibility from observer

Set your observer location to see the next 7 days of passes ≥ 10°. The values pass through the URL so the page stays shareable.

No JS? Fill the form by hand. The geolocation button needs JavaScript.